Regional Weather Roundup
Issued by NWS

Home | Current Version | Previous Version | Graphics & Text | Print | Product List | Glossary On
Versions: 1 2 3 4 5 6 7 8 9 10 11 12 13 14 15 16 17 18 19 20 21 22 23 24 25 26 27 28 29 30 31 32 33 34 35 36 37 38 39 40 41 42 43 44 45 46 47 48 49 50
000
ASUS43 KLMK 190902
RWRKY
KENTUCKY REGIONAL WEATHER ROUNDUP
NATIONAL WEATHER SERVICE LOUISVILLE KY
500 AM EDT THU OCT 19 2017

NOTE "FAIR" INDICATES FEW OR NO CLOUDS BELOW 12,000 FEET
WITH NO SIGNIFICANT WEATHER AND/OR OBSTRUCTIONS TO VISIBILITY.

KYZ001>023-026-027-061>063-070>075-191000-
WESTERN AND SOUTH CENTRAL KENTUCKY

CITY           SKY/WX    TMP DP  RH WIND       PRES   REMARKS
PADUCAH        CLEAR     56  45  66 SW6       30.18S
HENDERSON      CLEAR     48  45  89 S3        30.20S
OWENSBORO      CLEAR     49  45  86 S3        30.21F
HOPKINSVILLE   CLEAR     49  45  86 CALM      30.22S
BOWLING GREEN  CLEAR     43  43 100 CALM      30.25R
GLASGOW        CLEAR     42  42 100 CALM      30.24R
$$

KYZ024-025-028>034-038-045-046-053-191000-
NORTH CENTRAL KENTUCKY

CITY           SKY/WX    TMP DP  RH WIND       PRES   REMARKS
LOUISVILLE/SDF PTCLDY    54  45  71 S3        30.22R
LOUISVILLE/LOU CLEAR     46  45  96 CALM      30.23R
FORT KNOX      CLEAR     45  42  88 S3        30.21R
$$

KYZ035>037-039>044-047>052-055>060-089>105-191000-
NORTHEAST KENTUCKY

CITY           SKY/WX    TMP DP  RH WIND       PRES   REMARKS
LEXINGTON      CLEAR     49  43  80 S7        30.24R
COVINGTON      CLEAR     49  46  90 SW6       30.21R
FRANKFORT      PTCLDY    43  39  86 CALM      30.22R
$$

KYZ054-064>069-076>088-106>120-191000-
SOUTHEAST KENTUCKY

CITY           SKY/WX    TMP DP  RH WIND       PRES   REMARKS
JACKSON        CLEAR     50  44  80 CALM      30.25S
LONDON         CLEAR     42  40  92 CALM      30.26R
SOMERSET         N/A     43  43 100 CALM      30.28R
MIDDLESBORO    FOG       41  41 100 CALM      30.29S VSB<1/4
MONTICELLO     CLOUDY    39  38  96 W8        30.28R WCI  33
$$





USA.gov is the U.S. government's official web portal to all federal, state and local government web resources and services.